Location: Arbon
(43.0005°N, 0.7472°E)
Time: 15:28:46
(UTC+00:00)

Envisat - Pass Details

Date: 30 October 2020
Orbit: 764 x 766 km, 98.1° (Epoch: 30 November)

Event Time Altitude Azimuth Distance (km) Brightness Sun altitude
Rises 18:03:23 0° 199° (SSW) 3,219 6.6 -13.7°
Reaches altitude 10° 18:06:06 10° 213° (SSW) 2,298 6.0 -14.2°
Maximum altitude 18:10:10 24° 267° (W) 1,553 5.6 -14.9°
Drops below altitude 10° 18:14:14 10° 320° (NW) 2,311 6.0 -15.7°
Sets 18:16:59 0° 334° (NNW) 3,242 6.5 -16.2°
